Year,Month,Day,Hour,Minute,Value (Times are PST for temperature in C)
2010,01,21,00,00,7.20
2010,01,21,00,01,7.20
2010,01,21,00,02,7.20
2010,01,21,00,03,7.20
2010,01,21,00,04,7.20
2010,01,21,00,05,7.20
2010,01,21,00,06,7.20
2010,01,21,00,07,7.20
2010,01,21,00,08,7.20
2010,01,21,00,09,7.20
2010,01,21,00,10,7.20
2010,01,21,00,11,7.20
2010,01,21,00,12,7.20
2010,01,21,00,13,7.20
2010,01,21,00,14,7.20
2010,01,21,00,15,7.20
2010,01,21,00,16,7.20
2010,01,21,00,17,7.20
2010,01,21,00,18,7.20
2010,01,21,00,19,7.20
2010,01,21,00,20,7.20
2010,01,21,00,21,7.20
2010,01,21,00,22,7.30
2010,01,21,00,23,7.30
2010,01,21,00,24,7.30
2010,01,21,00,25,7.30
2010,01,21,00,26,7.30
2010,01,21,00,27,7.30
2010,01,21,00,28,7.30
2010,01,21,00,29,7.30
2010,01,21,00,30,7.30
2010,01,21,00,31,7.30
2010,01,21,00,32,7.30
2010,01,21,00,33,7.30
2010,01,21,00,34,7.30
2010,01,21,00,35,7.30
2010,01,21,00,36,7.30
2010,01,21,00,37,7.30
2010,01,21,00,38,7.30
2010,01,21,00,39,7.30
2010,01,21,00,40,7.30
2010,01,21,00,41,7.30
2010,01,21,00,42,7.30
2010,01,21,00,43,7.30
2010,01,21,00,44,7.30
2010,01,21,00,45,7.30
2010,01,21,00,46,7.30
2010,01,21,00,47,7.30
2010,01,21,00,48,7.30
2010,01,21,00,49,7.30
2010,01,21,00,50,7.30
2010,01,21,00,51,7.30
2010,01,21,00,52,7.30
2010,01,21,00,53,7.40
2010,01,21,00,54,7.40
2010,01,21,00,55,7.40
2010,01,21,00,56,7.40
2010,01,21,00,57,7.40
2010,01,21,00,58,7.40
2010,01,21,00,59,7.40
2010,01,21,01,00,7.40
2010,01,21,01,01,7.40
2010,01,21,01,02,7.40
2010,01,21,01,03,7.40
2010,01,21,01,04,7.40
2010,01,21,01,05,7.30
2010,01,21,01,06,7.30
2010,01,21,01,07,7.30
2010,01,21,01,08,7.30
2010,01,21,01,09,7.30
2010,01,21,01,10,7.30
2010,01,21,01,11,7.30
2010,01,21,01,12,7.20
2010,01,21,01,13,7.20
2010,01,21,01,14,7.20
2010,01,21,01,15,7.20
2010,01,21,01,16,7.20
2010,01,21,01,17,7.10
2010,01,21,01,18,7.10
2010,01,21,01,19,7.00
2010,01,21,01,20,7.00
2010,01,21,01,21,7.00
2010,01,21,01,22,6.90
2010,01,21,01,23,6.90
2010,01,21,01,24,6.80
2010,01,21,01,25,6.70
2010,01,21,01,26,6.70
2010,01,21,01,27,6.60
2010,01,21,01,28,6.60
2010,01,21,01,29,6.60
2010,01,21,01,30,6.60
2010,01,21,01,31,6.50
2010,01,21,01,32,6.50
2010,01,21,01,33,6.50
2010,01,21,01,34,6.50
2010,01,21,01,35,6.50
2010,01,21,01,36,6.40
2010,01,21,01,37,6.40
2010,01,21,01,38,6.40
2010,01,21,01,39,6.40
2010,01,21,01,40,6.40
2010,01,21,01,41,6.40
2010,01,21,01,42,6.40
2010,01,21,01,43,6.40
2010,01,21,01,44,6.40
2010,01,21,01,45,6.40
2010,01,21,01,46,6.40
2010,01,21,01,47,6.40
2010,01,21,01,48,6.40
2010,01,21,01,49,6.40
2010,01,21,01,50,6.40
2010,01,21,01,51,6.40
2010,01,21,01,52,6.40
2010,01,21,01,53,6.40
2010,01,21,01,54,6.40
2010,01,21,01,55,6.40
2010,01,21,01,56,6.40
2010,01,21,01,57,6.50
2010,01,21,01,58,6.40
2010,01,21,01,59,6.50
2010,01,21,02,00,6.50
2010,01,21,02,01,6.40
2010,01,21,02,02,6.40
2010,01,21,02,03,6.40
2010,01,21,02,04,6.40
2010,01,21,02,05,6.40
2010,01,21,02,06,6.30
2010,01,21,02,07,6.30
2010,01,21,02,08,6.30
2010,01,21,02,09,6.30
2010,01,21,02,10,6.20
2010,01,21,02,11,6.20
2010,01,21,02,12,6.20
2010,01,21,02,13,6.20
2010,01,21,02,14,6.20
2010,01,21,02,15,6.20
2010,01,21,02,16,6.20
2010,01,21,02,17,6.20
2010,01,21,02,18,6.20
2010,01,21,02,19,6.20
2010,01,21,02,20,6.10
2010,01,21,02,21,6.10
2010,01,21,02,22,6.10
2010,01,21,02,23,6.10
2010,01,21,02,24,6.10
2010,01,21,02,25,6.10
2010,01,21,02,26,6.10
2010,01,21,02,27,6.10
2010,01,21,02,28,6.10
2010,01,21,02,29,6.10
2010,01,21,02,30,6.10
2010,01,21,02,31,6.10
2010,01,21,02,32,6.10
2010,01,21,02,33,6.20
2010,01,21,02,34,6.20
2010,01,21,02,35,6.20
2010,01,21,02,36,6.20
2010,01,21,02,37,6.20
2010,01,21,02,38,6.20
2010,01,21,02,39,6.20
2010,01,21,02,40,6.20
2010,01,21,02,41,6.20
2010,01,21,02,42,6.20
2010,01,21,02,43,6.20
2010,01,21,02,44,6.20
2010,01,21,02,45,6.20
2010,01,21,02,46,6.20
2010,01,21,02,47,6.20
2010,01,21,02,48,6.20
2010,01,21,02,49,6.20
2010,01,21,02,50,6.20
2010,01,21,02,51,6.20
2010,01,21,02,52,6.20
2010,01,21,02,53,6.20
2010,01,21,02,54,6.20
2010,01,21,02,55,6.20
2010,01,21,02,56,6.30
2010,01,21,02,57,6.30
2010,01,21,02,58,6.30
2010,01,21,02,59,6.30
2010,01,21,03,00,6.30
2010,01,21,03,01,6.30
2010,01,21,03,02,6.30
2010,01,21,03,03,6.30
2010,01,21,03,04,6.30
2010,01,21,03,05,6.30
2010,01,21,03,06,6.30
2010,01,21,03,07,6.30
2010,01,21,03,08,6.30
2010,01,21,03,09,6.30
2010,01,21,03,10,6.30
2010,01,21,03,11,6.30
2010,01,21,03,12,6.30
2010,01,21,03,13,6.20
2010,01,21,03,14,6.20
2010,01,21,03,15,6.20
2010,01,21,03,16,6.20
2010,01,21,03,17,6.20
2010,01,21,03,18,6.30
2010,01,21,03,19,6.30
2010,01,21,03,20,6.30
2010,01,21,03,21,6.30
2010,01,21,03,22,6.30
2010,01,21,03,23,6.30
2010,01,21,03,24,6.30
2010,01,21,03,25,6.30
2010,01,21,03,26,6.30
2010,01,21,03,27,6.30
2010,01,21,03,28,6.30
2010,01,21,03,29,6.20
2010,01,21,03,30,6.20
2010,01,21,03,31,6.20
2010,01,21,03,32,6.20
2010,01,21,03,33,6.20
2010,01,21,03,34,6.20
2010,01,21,03,35,6.20
2010,01,21,03,36,6.20
2010,01,21,03,37,6.20
2010,01,21,03,38,6.20
2010,01,21,03,39,6.20
2010,01,21,03,40,6.20
2010,01,21,03,41,6.20
2010,01,21,03,42,6.20
2010,01,21,03,43,6.20
2010,01,21,03,44,6.20
2010,01,21,03,45,6.20
2010,01,21,04,01,6.20
2010,01,21,04,02,6.20
2010,01,21,04,03,6.30
2010,01,21,04,04,6.30
2010,01,21,04,06,6.30
2010,01,21,04,07,6.30
2010,01,21,04,08,6.30
2010,01,21,04,09,6.30
2010,01,21,04,10,6.20
2010,01,21,04,11,6.20
2010,01,21,04,12,6.20
2010,01,21,04,13,6.20
2010,01,21,04,14,6.20
2010,01,21,04,15,6.20
2010,01,21,04,16,6.20
2010,01,21,04,17,6.30
2010,01,21,04,18,6.30
2010,01,21,04,19,6.30
2010,01,21,04,20,6.30
2010,01,21,04,21,6.30
2010,01,21,04,22,6.40
2010,01,21,04,23,6.40
2010,01,21,04,24,6.40
2010,01,21,04,25,6.40
2010,01,21,04,26,6.40
2010,01,21,04,27,6.40
2010,01,21,04,28,6.40
2010,01,21,04,29,6.40
2010,01,21,04,30,6.40
2010,01,21,04,31,6.40
2010,01,21,04,32,6.40
2010,01,21,04,33,6.40
2010,01,21,04,34,6.40
2010,01,21,04,35,6.40
2010,01,21,04,36,6.40
2010,01,21,04,37,6.40
2010,01,21,04,38,6.40
2010,01,21,04,39,6.40
2010,01,21,04,40,6.40
2010,01,21,04,41,6.40
2010,01,21,04,42,6.40
2010,01,21,04,43,6.40
2010,01,21,04,44,6.40
2010,01,21,04,45,6.40
2010,01,21,04,46,6.30
2010,01,21,04,47,6.30
2010,01,21,04,48,6.30
2010,01,21,04,49,6.30
2010,01,21,04,50,6.20
2010,01,21,04,51,6.20
2010,01,21,04,52,6.20
2010,01,21,04,53,6.20
2010,01,21,04,54,6.20
2010,01,21,04,55,6.20
2010,01,21,04,56,6.20
2010,01,21,04,57,6.20
2010,01,21,04,58,6.20
2010,01,21,04,59,6.20
2010,01,21,05,00,6.20
2010,01,21,05,01,6.10
2010,01,21,05,02,6.10
2010,01,21,05,03,6.10
2010,01,21,05,04,6.10
2010,01,21,05,05,6.10
2010,01,21,05,06,6.00
2010,01,21,05,07,6.00
2010,01,21,05,08,6.00
2010,01,21,05,09,6.00
2010,01,21,05,10,6.00
2010,01,21,05,11,6.10
2010,01,21,05,12,6.10
2010,01,21,05,13,6.10
2010,01,21,05,14,6.10
2010,01,21,05,15,6.10
2010,01,21,05,16,6.10
2010,01,21,05,17,6.00
2010,01,21,05,18,6.00
2010,01,21,05,19,6.00
2010,01,21,05,20,6.00
2010,01,21,05,21,6.00
2010,01,21,05,22,6.00
2010,01,21,05,23,6.00
2010,01,21,05,24,6.00
2010,01,21,05,25,6.00
2010,01,21,05,26,6.00
2010,01,21,05,27,6.00
2010,01,21,05,28,6.00
2010,01,21,05,29,6.00
2010,01,21,05,30,5.90
2010,01,21,05,31,5.90
2010,01,21,05,32,5.90
2010,01,21,05,33,5.80
2010,01,21,05,34,5.80
2010,01,21,05,35,5.80
2010,01,21,05,36,5.80
2010,01,21,05,37,5.80
2010,01,21,05,38,5.80
2010,01,21,05,39,5.90
2010,01,21,05,40,5.90
2010,01,21,05,41,5.90
2010,01,21,05,42,5.90
2010,01,21,05,43,5.90
2010,01,21,05,44,5.80
2010,01,21,05,45,5.80
2010,01,21,05,46,5.80
2010,01,21,05,47,5.80
2010,01,21,05,48,5.80
2010,01,21,05,49,5.80
2010,01,21,05,50,5.80
2010,01,21,05,51,5.80
2010,01,21,05,52,5.80
2010,01,21,05,53,5.80
2010,01,21,05,54,5.70
2010,01,21,05,55,5.70
2010,01,21,05,56,5.70
2010,01,21,05,57,5.70
2010,01,21,05,58,5.60
2010,01,21,05,59,5.60
2010,01,21,06,00,5.60
2010,01,21,06,01,5.60
2010,01,21,06,02,5.50
2010,01,21,06,03,5.50
2010,01,21,06,04,5.40
2010,01,21,06,05,5.40
2010,01,21,06,06,5.40
2010,01,21,06,07,5.40
2010,01,21,06,08,5.30
2010,01,21,06,09,5.30
2010,01,21,06,10,5.30
2010,01,21,06,11,5.30
2010,01,21,06,12,5.30
2010,01,21,06,13,5.30
2010,01,21,06,14,5.30
2010,01,21,06,15,5.20
2010,01,21,06,16,5.20
2010,01,21,06,17,5.10
2010,01,21,06,18,5.10
2010,01,21,06,19,5.10
2010,01,21,06,20,5.00
2010,01,21,06,21,5.00
2010,01,21,06,22,4.90
2010,01,21,06,23,4.90
2010,01,21,06,24,4.80
2010,01,21,06,25,4.80
2010,01,21,06,26,4.70
2010,01,21,06,27,4.80
2010,01,21,06,28,4.80
2010,01,21,06,29,4.90
2010,01,21,06,30,4.90
2010,01,21,06,31,5.00
2010,01,21,06,32,5.00
2010,01,21,06,33,5.00
2010,01,21,06,34,5.00
2010,01,21,06,35,5.10
2010,01,21,06,36,5.10
2010,01,21,06,37,5.10
2010,01,21,06,38,5.10
2010,01,21,06,39,5.10
2010,01,21,06,40,5.10
2010,01,21,06,41,5.10
2010,01,21,06,42,5.00
2010,01,21,06,43,5.00
2010,01,21,06,44,4.90
2010,01,21,06,45,4.80
2010,01,21,06,46,4.80
2010,01,21,06,47,4.70
2010,01,21,06,48,4.70
2010,01,21,06,49,4.70
2010,01,21,06,50,4.60
2010,01,21,06,51,4.60
2010,01,21,06,52,4.60
2010,01,21,06,53,4.70
2010,01,21,06,54,4.70
2010,01,21,06,55,4.70
2010,01,21,06,56,4.70
2010,01,21,06,57,4.70
2010,01,21,06,58,4.60
2010,01,21,06,59,4.60
2010,01,21,07,00,4.50
2010,01,21,07,01,4.50
2010,01,21,07,02,4.50
2010,01,21,07,03,4.50
2010,01,21,07,04,4.60
2010,01,21,07,05,4.60
2010,01,21,07,06,4.70
2010,01,21,07,07,4.70
2010,01,21,07,08,4.70
2010,01,21,07,09,4.70
2010,01,21,07,10,4.60
2010,01,21,07,11,4.50
2010,01,21,07,12,4.50
2010,01,21,07,13,4.40
2010,01,21,07,14,4.40
2010,01,21,07,15,4.40
2010,01,21,07,16,4.50
2010,01,21,07,17,4.50
2010,01,21,07,18,4.50
2010,01,21,07,19,4.50
2010,01,21,07,20,4.50
2010,01,21,07,21,4.50
2010,01,21,07,22,4.50
2010,01,21,07,23,4.50
2010,01,21,07,24,4.50
2010,01,21,07,25,4.50
2010,01,21,07,26,4.40
2010,01,21,07,27,4.40
2010,01,21,07,28,4.40
2010,01,21,07,29,4.40
2010,01,21,07,30,4.40
2010,01,21,07,31,4.40
2010,01,21,07,32,4.40
2010,01,21,07,33,4.40
2010,01,21,07,34,4.40
2010,01,21,07,35,4.40
2010,01,21,07,36,4.40
2010,01,21,07,37,4.30
2010,01,21,07,38,4.30
2010,01,21,07,39,4.40
2010,01,21,07,40,4.40
2010,01,21,07,41,4.40
2010,01,21,07,42,4.40
2010,01,21,07,43,4.40
2010,01,21,07,44,4.30
2010,01,21,07,45,4.30
2010,01,21,07,46,4.30
2010,01,21,07,47,4.30
2010,01,21,07,48,4.30
2010,01,21,07,49,4.30
2010,01,21,07,50,4.40
2010,01,21,07,51,4.40
2010,01,21,07,52,4.40
2010,01,21,07,53,4.40
2010,01,21,07,54,4.40
2010,01,21,07,55,4.30
2010,01,21,07,56,4.30
2010,01,21,07,57,4.30
2010,01,21,07,58,4.30
2010,01,21,07,59,4.30
2010,01,21,08,00,4.40
2010,01,21,08,01,4.40
2010,01,21,08,02,4.40
2010,01,21,08,03,4.40
2010,01,21,08,04,4.40
2010,01,21,08,05,4.40
2010,01,21,08,06,4.40
2010,01,21,08,07,4.50
2010,01,21,08,08,4.50
2010,01,21,08,09,4.60
2010,01,21,08,10,4.70
2010,01,21,08,11,4.70
2010,01,21,08,12,4.60
2010,01,21,08,13,4.60
2010,01,21,08,14,4.60
2010,01,21,08,15,4.60
2010,01,21,08,16,4.60
2010,01,21,08,17,4.60
2010,01,21,08,18,4.60
2010,01,21,08,19,4.50
2010,01,21,08,20,4.50
2010,01,21,08,21,4.50
2010,01,21,08,22,4.50
2010,01,21,08,23,4.60
2010,01,21,08,24,4.60
2010,01,21,08,25,4.70
2010,01,21,08,26,4.70
2010,01,21,08,27,4.70
2010,01,21,08,28,4.70
2010,01,21,08,29,4.80
2010,01,21,08,30,4.80
2010,01,21,08,31,4.80
2010,01,21,08,32,4.80
2010,01,21,08,33,4.80
2010,01,21,08,34,4.80
2010,01,21,08,35,4.80
2010,01,21,08,36,4.70
2010,01,21,08,37,4.70
2010,01,21,08,38,4.60
2010,01,21,08,39,4.60
2010,01,21,08,40,4.60
2010,01,21,08,41,4.60
2010,01,21,08,42,4.60
2010,01,21,08,43,4.60
2010,01,21,08,44,4.60
2010,01,21,08,45,4.60
2010,01,21,08,46,4.60
2010,01,21,08,47,4.60
2010,01,21,08,48,4.60
2010,01,21,08,49,4.70
2010,01,21,08,50,4.70
2010,01,21,08,51,4.80
2010,01,21,08,52,4.80
2010,01,21,08,53,4.80
2010,01,21,08,54,4.80
2010,01,21,08,55,4.80
2010,01,21,08,56,4.80
2010,01,21,08,57,4.80
2010,01,21,08,58,4.90
2010,01,21,08,59,4.90
2010,01,21,09,00,4.90
2010,01,21,09,01,5.00
2010,01,21,09,02,5.00
2010,01,21,09,03,5.00
2010,01,21,09,04,5.00
2010,01,21,09,05,5.00
2010,01,21,09,06,5.00
2010,01,21,09,07,5.00
2010,01,21,09,08,5.00
2010,01,21,09,09,4.90
2010,01,21,09,10,4.90
2010,01,21,09,11,4.90
2010,01,21,09,12,4.90
2010,01,21,09,13,4.90
2010,01,21,09,14,4.90
2010,01,21,09,15,4.90
2010,01,21,09,16,4.90
2010,01,21,09,17,4.90
2010,01,21,09,18,5.00
2010,01,21,09,19,5.10
2010,01,21,09,20,5.10
2010,01,21,09,21,5.10
2010,01,21,09,22,5.20
2010,01,21,09,23,5.20
2010,01,21,09,24,5.20
2010,01,21,09,25,5.20
2010,01,21,09,26,5.20
2010,01,21,09,27,5.20
2010,01,21,09,28,5.30
2010,01,21,09,29,5.30
2010,01,21,09,30,5.30
2010,01,21,09,31,5.30
2010,01,21,09,32,5.30
2010,01,21,09,33,5.30
2010,01,21,09,34,5.30
2010,01,21,09,35,5.30
2010,01,21,09,36,5.30
2010,01,21,09,37,5.30
2010,01,21,09,38,5.30
2010,01,21,09,39,5.30
2010,01,21,09,40,5.30
2010,01,21,09,41,5.30
2010,01,21,09,42,5.30
2010,01,21,09,43,5.30
2010,01,21,09,44,5.40
2010,01,21,09,45,5.40
2010,01,21,09,46,5.40
2010,01,21,09,47,5.50
2010,01,21,09,48,5.50
2010,01,21,09,49,5.50
2010,01,21,09,50,5.60
2010,01,21,09,51,5.60
2010,01,21,09,52,5.60
2010,01,21,09,53,5.70
2010,01,21,09,54,5.70
2010,01,21,09,55,5.70
2010,01,21,09,56,5.70
2010,01,21,09,57,5.70
2010,01,21,09,58,5.70
2010,01,21,09,59,5.70
2010,01,21,10,00,5.70
2010,01,21,10,01,5.70
2010,01,21,10,02,5.70
2010,01,21,10,03,5.80
2010,01,21,10,04,5.80
2010,01,21,10,05,5.80
2010,01,21,10,06,5.80
2010,01,21,10,07,5.80
2010,01,21,10,08,5.80
2010,01,21,10,09,5.80
2010,01,21,10,10,5.80
2010,01,21,10,11,5.80
2010,01,21,10,12,5.80
2010,01,21,10,13,5.80
2010,01,21,10,14,5.80
2010,01,21,10,15,5.90
2010,01,21,10,16,5.90
2010,01,21,10,17,5.90
2010,01,21,10,18,5.90
2010,01,21,10,19,5.90
2010,01,21,10,20,6.00
2010,01,21,10,21,6.00
2010,01,21,10,22,6.00
2010,01,21,10,23,6.10
2010,01,21,10,24,6.10
2010,01,21,10,25,6.10
2010,01,21,10,26,6.20
2010,01,21,10,27,6.20
2010,01,21,10,28,6.20
2010,01,21,10,29,6.20
2010,01,21,10,30,6.30
2010,01,21,10,31,6.30
2010,01,21,10,32,6.40
2010,01,21,10,33,6.40
2010,01,21,10,34,6.40
2010,01,21,10,35,6.40
2010,01,21,10,36,6.50
2010,01,21,10,37,6.50
2010,01,21,10,38,6.60
2010,01,21,10,39,6.60
2010,01,21,10,40,6.60
2010,01,21,10,41,6.60
2010,01,21,10,42,6.70
2010,01,21,10,43,6.70
2010,01,21,10,44,6.70
2010,01,21,10,45,6.70
2010,01,21,10,46,6.70
2010,01,21,10,47,6.80
2010,01,21,10,48,6.80
2010,01,21,10,49,6.80
2010,01,21,10,50,6.80
2010,01,21,10,51,6.80
2010,01,21,10,52,6.80
2010,01,21,10,53,6.80
2010,01,21,10,54,6.90
2010,01,21,10,55,6.90
2010,01,21,10,56,6.90
2010,01,21,10,57,6.90
2010,01,21,10,58,6.90
2010,01,21,10,59,7.00
2010,01,21,11,00,7.00
2010,01,21,11,01,7.00
2010,01,21,11,02,7.10
2010,01,21,11,03,7.10
2010,01,21,11,04,7.10
2010,01,21,11,05,7.20
2010,01,21,11,06,7.20
2010,01,21,11,07,7.20
2010,01,21,11,08,7.20
2010,01,21,11,09,7.20
2010,01,21,11,10,7.30
2010,01,21,11,11,7.30
2010,01,21,11,12,7.30
2010,01,21,11,13,7.40
2010,01,21,11,14,7.40
2010,01,21,11,15,7.50
2010,01,21,11,16,7.50
2010,01,21,11,17,7.60
2010,01,21,11,18,7.60
2010,01,21,11,19,7.70
2010,01,21,11,20,7.70
2010,01,21,11,21,7.80
2010,01,21,11,22,7.80
2010,01,21,11,23,7.80
2010,01,21,11,24,7.80
2010,01,21,11,25,7.90
2010,01,21,11,26,7.90
2010,01,21,11,27,7.90
2010,01,21,11,28,8.00
2010,01,21,11,29,8.00
2010,01,21,11,30,8.00
2010,01,21,11,31,8.10
2010,01,21,11,32,8.10
2010,01,21,11,33,8.20
2010,01,21,11,34,8.20
2010,01,21,11,35,8.30
2010,01,21,11,36,8.30
2010,01,21,11,37,8.30
2010,01,21,11,38,8.40
2010,01,21,11,39,8.40
2010,01,21,11,40,8.50
2010,01,21,11,41,8.50
2010,01,21,11,42,8.60
2010,01,21,11,43,8.60
2010,01,21,11,44,8.60
2010,01,21,11,45,8.60
2010,01,21,11,46,8.70
2010,01,21,11,47,8.70
2010,01,21,11,48,8.70
2010,01,21,11,49,8.80
2010,01,21,11,50,8.80
2010,01,21,11,51,8.90
2010,01,21,11,52,8.90
2010,01,21,11,53,8.90
2010,01,21,11,54,8.90
2010,01,21,11,55,9.00
2010,01,21,11,56,9.00
2010,01,21,11,57,9.00
2010,01,21,11,58,9.10
2010,01,21,11,59,9.10
2010,01,21,12,00,9.10
2010,01,21,12,01,9.20
2010,01,21,12,02,9.20
2010,01,21,12,03,9.20
2010,01,21,12,04,9.30
2010,01,21,12,05,9.30
2010,01,21,12,06,9.30
2010,01,21,12,07,9.40
2010,01,21,12,08,9.40
2010,01,21,12,09,9.50
2010,01,21,12,10,9.50
2010,01,21,12,11,9.60
2010,01,21,12,12,9.60
2010,01,21,12,13,9.60
2010,01,21,12,14,9.60
2010,01,21,12,15,9.60
2010,01,21,12,16,9.60
2010,01,21,12,17,9.50
2010,01,21,12,18,9.40
2010,01,21,12,19,9.40
2010,01,21,12,20,9.30
2010,01,21,12,21,9.20
2010,01,21,12,22,9.00
2010,01,21,12,23,8.90
2010,01,21,12,24,8.80
2010,01,21,12,25,8.60
2010,01,21,12,26,8.50
2010,01,21,12,27,8.40
2010,01,21,12,28,8.30
2010,01,21,12,29,8.20
2010,01,21,12,30,8.20
2010,01,21,12,31,8.10
2010,01,21,12,32,8.10
2010,01,21,12,33,8.10
2010,01,21,12,34,8.10
2010,01,21,12,35,8.10
2010,01,21,12,36,8.10
2010,01,21,12,37,8.10
2010,01,21,12,38,8.00
2010,01,21,12,39,8.00
2010,01,21,12,40,8.00
2010,01,21,12,41,8.00
2010,01,21,12,42,8.00
2010,01,21,12,43,8.10
2010,01,21,12,44,8.10
2010,01,21,12,45,8.10
2010,01,21,12,46,8.20
2010,01,21,12,47,8.20
2010,01,21,12,48,8.20
2010,01,21,12,49,8.20
2010,01,21,12,50,8.20
2010,01,21,12,51,8.20
2010,01,21,12,52,8.30
2010,01,21,12,53,8.30
2010,01,21,12,54,8.30
2010,01,21,12,55,8.30
2010,01,21,12,56,8.30
2010,01,21,12,57,8.30
2010,01,21,12,58,8.30
2010,01,21,12,59,8.30
2010,01,21,13,00,8.30
2010,01,21,13,01,8.30
2010,01,21,13,02,8.30
2010,01,21,13,03,8.30
2010,01,21,13,04,8.30
2010,01,21,13,05,8.30
2010,01,21,13,06,8.40
2010,01,21,13,07,8.40
2010,01,21,13,08,8.40
2010,01,21,13,09,8.50
2010,01,21,13,10,8.50
2010,01,21,13,11,8.60
2010,01,21,13,12,8.60
2010,01,21,13,13,8.60
2010,01,21,13,14,8.70
2010,01,21,13,15,8.70
2010,01,21,13,16,8.70
2010,01,21,13,17,8.60
2010,01,21,13,18,8.60
2010,01,21,13,19,8.60
2010,01,21,13,20,8.50
2010,01,21,13,21,8.40
2010,01,21,13,22,8.40
2010,01,21,13,23,8.30
2010,01,21,13,24,8.30
2010,01,21,13,25,8.20
2010,01,21,13,26,8.20
2010,01,21,13,27,8.10
2010,01,21,13,28,8.00
2010,01,21,13,29,8.00
2010,01,21,13,30,7.90
2010,01,21,13,31,7.90
2010,01,21,13,32,7.90
2010,01,21,13,33,7.90
2010,01,21,13,34,7.90
2010,01,21,13,35,7.80
2010,01,21,13,36,7.90
2010,01,21,13,37,7.90
2010,01,21,13,38,7.90
2010,01,21,13,39,7.90
2010,01,21,13,40,8.00
2010,01,21,13,41,8.00
2010,01,21,13,42,8.10
2010,01,21,13,43,8.10
2010,01,21,13,44,8.20
2010,01,21,13,45,8.30
2010,01,21,13,46,8.30
2010,01,21,13,47,8.40
2010,01,21,13,48,8.50
2010,01,21,13,49,8.60
2010,01,21,13,50,8.60
2010,01,21,13,51,8.70
2010,01,21,13,52,8.70
2010,01,21,13,53,8.80
2010,01,21,13,54,8.80
2010,01,21,13,55,8.80
2010,01,21,13,56,8.80
2010,01,21,13,57,8.80
2010,01,21,13,58,8.80
2010,01,21,13,59,8.80
2010,01,21,14,00,8.80
2010,01,21,14,01,8.80
2010,01,21,14,02,8.80
2010,01,21,14,03,8.80
2010,01,21,14,04,8.80
2010,01,21,14,05,8.80
2010,01,21,14,06,8.90
2010,01,21,14,07,8.90
2010,01,21,14,08,8.90
2010,01,21,14,09,8.90
2010,01,21,14,10,8.90
2010,01,21,14,11,8.90
2010,01,21,14,12,8.90
2010,01,21,14,13,8.90
2010,01,21,14,14,8.90
2010,01,21,14,15,8.90
2010,01,21,14,16,8.90
2010,01,21,14,17,8.90
2010,01,21,14,18,8.90
2010,01,21,14,19,8.90
2010,01,21,14,20,8.90
2010,01,21,14,21,8.90
2010,01,21,14,22,8.80
2010,01,21,14,23,8.80
2010,01,21,14,24,8.80
2010,01,21,14,25,8.70
2010,01,21,14,26,8.70
2010,01,21,14,27,8.70
2010,01,21,14,28,8.60
2010,01,21,14,29,8.60
2010,01,21,14,30,8.60
2010,01,21,14,31,8.60
2010,01,21,14,32,8.60
2010,01,21,14,33,8.60
2010,01,21,14,34,8.60
2010,01,21,14,35,8.60
2010,01,21,14,36,8.60
2010,01,21,14,37,8.60
2010,01,21,14,38,8.60
2010,01,21,14,39,8.70
2010,01,21,14,40,8.70
2010,01,21,14,41,8.80
2010,01,21,14,42,8.80
2010,01,21,14,43,8.90
2010,01,21,14,44,9.00
2010,01,21,14,45,9.10
2010,01,21,14,46,9.10
2010,01,21,14,47,9.20
2010,01,21,14,48,9.20
2010,01,21,14,49,9.20
2010,01,21,14,50,9.20
2010,01,21,14,51,9.20
2010,01,21,14,52,9.20
2010,01,21,14,53,9.10
2010,01,21,14,54,9.10
2010,01,21,14,55,9.10
2010,01,21,14,56,9.10
2010,01,21,14,57,9.10
2010,01,21,14,58,9.10
2010,01,21,14,59,9.10
2010,01,21,15,00,9.20
2010,01,21,15,01,9.20
2010,01,21,15,02,9.20
2010,01,21,15,03,9.30
2010,01,21,15,04,9.30
2010,01,21,15,05,9.30
2010,01,21,15,06,9.30
2010,01,21,15,07,9.30
2010,01,21,15,08,9.30
2010,01,21,15,09,9.30
2010,01,21,15,10,9.30
2010,01,21,15,11,9.30
2010,01,21,15,12,9.30
2010,01,21,15,13,9.30
2010,01,21,15,14,9.30
2010,01,21,15,15,9.30
2010,01,21,15,16,9.30
2010,01,21,15,17,9.30
2010,01,21,15,18,9.30
2010,01,21,15,19,9.30
2010,01,21,15,20,9.30
2010,01,21,15,21,9.40
2010,01,21,15,22,9.30
2010,01,21,15,23,9.30
2010,01,21,15,24,9.30
2010,01,21,15,25,9.30
2010,01,21,15,26,9.30
2010,01,21,15,27,9.20
2010,01,21,15,28,9.10
2010,01,21,15,29,9.00
2010,01,21,15,30,8.90
2010,01,21,15,31,8.80
2010,01,21,15,32,8.70
2010,01,21,15,33,8.70
2010,01,21,15,34,8.60
2010,01,21,15,35,8.60
2010,01,21,15,36,8.60
2010,01,21,15,37,8.60
2010,01,21,15,38,8.50
2010,01,21,15,39,8.50
2010,01,21,15,40,8.50
2010,01,21,15,41,8.50
2010,01,21,15,42,8.50
2010,01,21,15,43,8.50
2010,01,21,15,44,8.40
2010,01,21,15,45,8.40
2010,01,21,15,46,8.40
2010,01,21,15,47,8.40
2010,01,21,15,48,8.40
2010,01,21,15,49,8.40
2010,01,21,15,50,8.30
2010,01,21,15,51,8.30
2010,01,21,15,52,8.30
2010,01,21,15,53,8.20
2010,01,21,15,54,8.20
2010,01,21,15,55,8.20
2010,01,21,15,56,8.10
2010,01,21,15,57,8.10
2010,01,21,15,58,8.00
2010,01,21,15,59,8.00
2010,01,21,16,00,8.00
2010,01,21,16,01,7.90
2010,01,21,16,02,7.90
2010,01,21,16,03,7.90
2010,01,21,16,04,7.90
2010,01,21,16,05,7.90
2010,01,21,16,06,7.90
2010,01,21,16,07,7.80
2010,01,21,16,08,7.80
2010,01,21,16,09,7.80
2010,01,21,16,10,7.80
2010,01,21,16,11,7.80
2010,01,21,16,12,7.70
2010,01,21,16,13,7.70
2010,01,21,16,14,7.70
2010,01,21,16,15,7.70
2010,01,21,16,16,7.70
2010,01,21,16,17,7.60
2010,01,21,16,18,7.60
2010,01,21,16,19,7.60
2010,01,21,16,20,7.60
2010,01,21,16,21,7.50
2010,01,21,16,22,7.50
2010,01,21,16,23,7.40
2010,01,21,16,24,7.40
2010,01,21,16,25,7.40
2010,01,21,16,26,7.40
2010,01,21,16,27,7.40
2010,01,21,16,28,7.30
2010,01,21,16,29,7.30
2010,01,21,16,30,7.30
2010,01,21,16,31,7.30
2010,01,21,16,32,7.20
2010,01,21,16,33,7.20
2010,01,21,16,34,7.20
2010,01,21,16,35,7.20
2010,01,21,16,36,7.20
2010,01,21,16,37,7.10
2010,01,21,16,38,7.10
2010,01,21,16,39,7.10
2010,01,21,16,40,7.00
2010,01,21,16,41,7.00
2010,01,21,16,42,7.00
2010,01,21,16,43,6.90
2010,01,21,16,44,6.90
2010,01,21,16,45,6.90
2010,01,21,16,46,6.90
2010,01,21,16,47,6.90
2010,01,21,16,48,6.80
2010,01,21,16,49,6.80
2010,01,21,16,50,6.80
2010,01,21,16,51,6.80
2010,01,21,16,52,6.80
2010,01,21,16,53,6.80
2010,01,21,16,54,6.70
2010,01,21,16,55,6.70
2010,01,21,16,56,6.70
2010,01,21,16,57,6.70
2010,01,21,16,58,6.70
2010,01,21,16,59,6.70
2010,01,21,17,00,6.60
2010,01,21,17,01,6.60
2010,01,21,17,02,6.60
2010,01,21,17,03,6.60
2010,01,21,17,04,6.60
2010,01,21,17,05,6.60
2010,01,21,17,06,6.60
2010,01,21,17,07,6.60
2010,01,21,17,08,6.60
2010,01,21,17,09,6.60
2010,01,21,17,10,6.60
2010,01,21,17,11,6.60
2010,01,21,17,12,6.60
2010,01,21,17,13,6.60
2010,01,21,17,14,6.60
2010,01,21,17,15,6.60
2010,01,21,17,16,6.60
2010,01,21,17,17,6.60
2010,01,21,17,18,6.60
2010,01,21,17,19,6.60
2010,01,21,17,20,6.60
2010,01,21,17,21,6.60
2010,01,21,17,22,6.60
2010,01,21,17,23,6.60
2010,01,21,17,24,6.70
2010,01,21,17,25,6.70
2010,01,21,17,26,6.70
2010,01,21,17,27,6.70
2010,01,21,17,28,6.70
2010,01,21,17,29,6.80
2010,01,21,17,30,6.80
2010,01,21,17,31,6.80
2010,01,21,17,32,6.80
2010,01,21,17,33,6.80
2010,01,21,17,34,6.80
2010,01,21,17,35,6.80
2010,01,21,17,36,6.80
2010,01,21,17,37,6.80
2010,01,21,17,38,6.80
2010,01,21,17,39,6.80
2010,01,21,17,40,6.80
2010,01,21,17,41,6.80
2010,01,21,17,42,6.90
2010,01,21,17,43,6.90
2010,01,21,17,44,6.90
2010,01,21,17,45,6.90
2010,01,21,17,46,6.90
2010,01,21,17,47,6.90
2010,01,21,17,48,6.90
2010,01,21,17,49,6.90
2010,01,21,17,50,6.90
2010,01,21,17,51,6.80
2010,01,21,17,52,6.80
2010,01,21,17,53,6.70
2010,01,21,17,54,6.70
2010,01,21,17,55,6.70
2010,01,21,17,56,6.70
2010,01,21,17,57,6.70
2010,01,21,17,58,6.70
2010,01,21,17,59,6.70
2010,01,21,18,00,6.70
2010,01,21,18,01,6.70
2010,01,21,18,02,6.80
2010,01,21,18,03,6.80
2010,01,21,18,04,6.80
2010,01,21,18,05,6.80
2010,01,21,18,06,6.80
2010,01,21,18,07,6.90
2010,01,21,18,08,6.90
2010,01,21,18,09,6.90
2010,01,21,18,10,6.90
2010,01,21,18,11,7.00
2010,01,21,18,12,7.00
2010,01,21,18,13,7.00
2010,01,21,18,14,7.00
2010,01,21,18,15,7.00
2010,01,21,18,16,7.00
2010,01,21,18,17,7.00
2010,01,21,18,18,7.00
2010,01,21,18,19,7.00
2010,01,21,18,20,7.00
2010,01,21,18,21,7.00
2010,01,21,18,22,7.00